sat.trackr.live / text

‹ back to catalog

QIANFAN-109

NORAD 68636 · 2026-075A

PAYLOAD ACTIVE UNKNOWN

§ Identity

Operator
Country
PRC
Launch date
2026-04-07
Launch site
WSC
Launch vehicle
Mass (kg)
RCS (m²)

External: N2YO · Heavens-Above · Gunter

§ Orbital elements

Epoch: 2026-09-20T03:57:27.868032Z

Period
106.59 min
Inclination
88.9865°
Eccentricity
0.0002047
Mean motion
13.51020891 rev/d
Perigee alt
1,067.0 km
Apogee alt
1,070.0 km
Semi-major
7,446.6 km
B*
7.3340e-5
RAAN
311.3209°
Arg perigee
83.7240°
Mean anomaly
276.4144°
Rev number
2,261

§ Raw data

QIANFAN-1091 68636U 26075A   26263.16490588  .00000059  00000+0  73340-4 0  99932 68636  88.9865 311.3209 0002047  83.7240 276.4144 13.51020891 22610

JSON: /api/v1/satellites/68636 · /tle

For live sub-satellite position, see the globe view (requires WebGL).

§ Visibility from observer

Set your observer location to see the next 7 days of passes ≥ 10°. The values pass through the URL so the page stays shareable.

No JS? Fill the form by hand. The geolocation button needs JavaScript.